Terminal Aerodrome Forecast
Issued by NWS Upton, NY

Home | Current Version | Previous Version | Text Only | Print | Product List | Glossary On
Versions: 1 2 3 4 5 6 7 8 9 10 11 12 13 14 15 16 17 18 19 20 21 22 23 24 25
000
FTUS41 KOKX 230500
TAFISP
TAF
KISP 230526Z 2306/2406 05007KT P6SM FEW035 BKN060
     FM231100 05010KT P6SM SCT025 BKN035
     FM231600 07010KT P6SM SCT040 BKN060
     FM231900 09010KT P6SM SCT040 SCT080
     FM240100 06005KT P6SM SCT040
     FM240400 03005KT P6SM FEW040=

USA.gov is the U.S. government's official web portal to all federal, state and local government web resources and services.